Flag for Madagascar Weather past 2 weeks in Antananarivo, Madagascar

Now
50 °F

Passing clouds.


Feels Like: 49 °F
Forecast: 42 / 72 °F
Wind: 3 mph from Southeast

Location: Antananarivo / Ivato

Current Time: Jul 31, 2014 at 11:34:58 PM

Latest Report: Jul 31, 2014 at 11:00 PM


Visibility: N/A

Pressure: 30.36 "Hg

Humidity: 100%

Dew point: 50 °F

Location of AntananarivoLocation

Historic Weather in Antananarivo — Graph

°F

Antananarivo temperature yesterday

Maximum temperature yesterday: 66 °F (at 12:00 PM)
Minimum temperature yesterday: 50 °F (at 10:00 PM)
Average temperature yesterday: 59 °F

Past Weeks' High & Low Weather Summary

 TemperatureHumidityPressure
High79 °F (Jul 19, 12:00 PM)100% (Jul 16, 10:00 PM)30.45 "Hg (Jul 16, 10:00 PM)
Low46 °F (Jul 18, 4:00 AM)53% (Jul 18, 12:30 PM)30.21 "Hg (Jul 22, 2:00 PM)
Average60 °F91%30.32 "Hg
* Reported Jul 16 10:00 PM — Jul 31 10:30 PM, Antananarivo, Weather by CustomWeather, © 2014

Note: Actual official high and low records may vary slightly from our data, if they occured in-between our weather recording intervals... More about our weather records

Advertising

Antananarivo weather history for previous 24 hours

 ConditionsComfort  
Time TempWeatherWind HumidityBarometerVisibility
10:30 PM
Jul 31
50 °FPassing clouds.2 mph100%30.36 "HgN/A
10:00 PM50 °FPassing clouds.2 mph100%30.36 "HgN/A
9:30 PM50 °FPassing clouds.2 mph100%30.36 "HgN/A
9:00 PM50 °FPassing clouds.7 mph100%30.36 "HgN/A
8:30 PM52 °FPassing clouds.6 mph100%30.36 "HgN/A
8:00 PM54 °FPassing clouds.8 mph100%30.36 "HgN/A
7:30 PM54 °FPassing clouds.8 mph94%30.36 "HgN/A
7:00 PM54 °FPassing clouds.9 mph100%30.33 "HgN/A
6:30 PM55 °FPassing clouds.7 mph88%30.33 "HgN/A
6:00 PM55 °FPassing clouds.8 mph88%30.33 "HgN/A
5:00 PM63 °FPassing clouds.9 mph73%30.30 "HgN/A
4:30 PM64 °FPassing clouds.8 mph68%30.30 "HgN/A
4:00 PM64 °FPassing clouds.9 mph68%30.30 "HgN/A
3:00 PM66 °FPassing clouds.10 mph64%30.30 "HgN/A
2:30 PM66 °FPassing clouds.12 mph64%30.30 "HgN/A
2:00 PM66 °FPassing clouds.12 mph64%30.33 "HgN/A
1:30 PM66 °FMild.12 mph56%30.33 "HgN/A
1:00 PM66 °FPassing clouds.14 mph64%30.33 "HgN/A
12:30 PM64 °FPassing clouds.14 mph64%30.33 "HgN/A
12:00 PM64 °FPassing clouds.17 mph64%30.33 "HgN/A
11:30 AM63 °FPassing clouds.14 mph68%30.36 "HgN/A
11:00 AM63 °FPassing clouds.17 mph68%30.36 "HgN/A
10:30 AM59 °FScattered clouds.15 mph77%30.39 "HgN/A
10:00 AM59 °FScattered clouds.13 mph82%30.39 "HgN/A
9:30 AM57 °FScattered clouds.10 mph82%30.39 "HgN/A
9:00 AM55 °FPartly sunny.10 mph88%30.42 "HgN/A
8:30 AM54 °FPartly sunny.10 mph94%30.39 "HgN/A
8:00 AM52 °FPartly sunny.9 mph94%30.39 "HgN/A
7:30 AM54 °FPartly sunny.8 mph94%30.39 "HgN/A
7:00 AM50 °FPartly sunny.6 mph94%30.39 "HgN/A
6:30 AM50 °FPartly sunny.5 mph94%30.39 "HgN/A
6:00 AM50 °FPassing clouds.5 mph94%30.39 "HgN/A
5:30 AM50 °FPassing clouds.6 mph88%30.39 "HgN/A
5:00 AM50 °FPassing clouds.7 mph88%30.39 "HgN/A
4:00 AM50 °FPassing clouds.8 mph88%30.39 "HgN/A
3:30 AM50 °FPassing clouds.10 mph88%30.39 "HgN/A
3:00 AM52 °FPassing clouds.10 mph88%30.39 "HgN/A
2:30 AM50 °FPassing clouds.9 mph88%30.39 "HgN/A
2:00 AM50 °FPassing clouds.8 mph88%30.39 "HgN/A
1:30 AM50 °FPassing clouds.10 mph82%30.42 "HgN/A
1:00 AM52 °FPassing clouds.15 mph77%30.42 "HgN/A
12:30 AM52 °FPassing clouds.15 mph82%30.42 "HgN/A
12:00 AM52 °FPassing clouds.13 mph88%30.42 "HgN/A
11:30 PM
Jul 30
52 °FPassing clouds.10 mph88%30.42 "HgN/A
11:00 PM52 °FPassing clouds.12 mph88%30.42 "HgN/A
Weather by CustomWeather, © 2014

See weather overviewHow to use our weather pages